Retour au catalogue

CZ-6A DEB

ActifPO
NORAD 61466·DEBRIS·🇨🇳 China

Lancé Aug 6, 2024 depuis Taiyuan Satellite Launch Center

Loading…

Prochains Passages (prochaines 24 heures)

TLE

FraisSource: Space-Track

Époque: Sep 14, 2026, 10:20 UTC

1 61466U 24140ZY  26257.43086238  .00003007  00000-0  47273-3 0  9996
2 61466  89.0430 262.8232 0112857 275.8704  82.9658 14.68100652107190

Suivez CZ-6A DEB en temps réel avec AllMySat

Download on the App Store